Flag for Czech Republic Weather past 2 weeks in Brno, Czech Republic

Now
88 °F

Passing clouds.


Feels Like: 86 °F
Forecast: 60 / 94 °F
Wind: 3 mph from South

Location: Brno / Turany

Current Time: Jul 4, 2015 at 3:43:07 PM

Latest Report: Jul 4, 2015 at 3:00 PM


Visibility: 22 mi

Pressure: 30.16 "Hg

Humidity: 28%

Dew point: 51 °F

Location of BrnoLocation

Historic Weather in Brno — Graph

°F

Brno temperature yesterday

Maximum temperature yesterday: 87 °F (at 4:00 PM)
Minimum temperature yesterday: 61 °F (at 3:00 AM)
Average temperature yesterday: 75 °F

Past Weeks' High & Low Weather Summary

 TemperatureHumidityPressure
High87 °F (Jul 4, 2:00 PM)98% (Jun 23, 6:00 AM)30.33 "Hg (Jun 23, 6:00 AM)
Low49 °F (Jun 24, 5:00 AM)32% (Jul 2, 4:00 PM)29.74 "Hg (Jun 23, 4:00 AM)
Average65 °F63%30.09 "Hg
* Reported Jun 19 2:00 PM — Jul 4 2:00 PM, Brno, Weather by CustomWeather, © 2015

Note: Actual official high and low records may vary slightly from our data, if they occured in-between our weather recording intervals... More about our weather records

Advertising

Brno weather history for previous 24 hours

 ConditionsComfort  
Time TempWeatherWind HumidityBarometerVisibility
2:00 PM
Sat, Jul 4
87 °FPassing clouds.5 mph32%30.17 "Hg22 mi
1:00 PM87 °FPassing clouds.5 mph34%30.19 "Hg22 mi
12:00 PM85 °FPassing clouds.3 mph37%30.21 "Hg22 mi
11:00 AM83 °FPassing clouds.5 mph40%30.22 "Hg22 mi
10:00 AM81 °FScattered clouds.3 mph47%30.24 "Hg19 mi
9:00 AM76 °FScattered clouds.3 mph53%30.24 "Hg19 mi
8:00 AM73 °FPassing clouds.3 mph58%30.25 "Hg19 mi
7:00 AM67 °FPassing clouds.2 mph70%30.27 "Hg19 mi
6:00 AM63 °FPassing clouds.2 mph77%30.27 "Hg19 mi
5:00 AM63 °FPassing clouds.2 mph76%30.28 "Hg19 mi
4:00 AM65 °FPassing clouds.3 mph70%30.27 "Hg25 mi
3:00 AM64 °FClear.2 mph73%30.28 "Hg25 mi
2:00 AM69 °FClear.2 mph63%30.28 "Hg25 mi
1:00 AM72 °FClear.3 mph57%30.28 "Hg28 mi
12:00 AM72 °FPassing clouds.2 mph55%30.29 "Hg28 mi
11:00 PM
Fri, Jul 3
72 °FPassing clouds.2 mph55%30.29 "Hg28 mi
10:00 PM73 °FClear.1 mph56%30.29 "Hg28 mi
9:00 PM77 °FSunny.3 mph49%30.26 "Hg31 mi
8:00 PM82 °FSunny.2 mph40%30.24 "Hg31 mi
7:00 PM85 °FSunny.2 mph35%30.24 "Hg28 mi
6:00 PM86 °FPassing clouds.2 mph33%30.24 "Hg28 mi
5:00 PM86 °FPassing clouds.2 mph32%30.25 "Hg28 mi
4:00 PM87 °FPassing clouds.2 mph33%30.27 "Hg28 mi
3:00 PM86 °FPassing clouds.2 mph34%30.28 "Hg28 mi
Weather by CustomWeather, © 2015

See weather overviewHow to use our weather pages